FDX313 KLAL-KLAN

Flight info

Callsign FDX313
Flight time 2h 10m
Altitude 32000
Route NITTS WILON CAMJO ALLMA MHONY DEWAK PKACZ JECKA
Aircraft B77L/H-SDE1E2E3FGHIJ2J3J4J5M1RWXY/LB1D1

Departure

Time 2026-04-26 05:23
Airport Lakeland Linder International Airport (KLAL)

Arrival

Time 2026-04-26 07:33
Airport Capital Region International Airport (KLAN)
Time Latitude Longitude Altitude Speed Heading
2026-04-26 04:45 27.99199 -82.03430 140 ft 0 kts
2026-04-26 05:15 27.99198 -82.03430 139 ft 1 kts
2026-04-26 05:16 27.99183 -82.03430 139 ft 2 kts
2026-04-26 05:16 27.99168 -82.03431 139 ft 2 kts 16°
2026-04-26 05:16 27.99155 -82.03438 139 ft 2 kts 38°
2026-04-26 05:16 27.99144 -82.03450 139 ft 2 kts 58°
2026-04-26 05:17 27.99138 -82.03465 139 ft 2 kts 78°
2026-04-26 05:17 27.99137 -82.03475 139 ft 0 kts 90°
2026-04-26 05:17 27.99137 -82.03478 139 ft 0 kts 90°
2026-04-26 05:18 27.99137 -82.03477 139 ft 0 kts 90°
2026-04-26 05:19 27.99137 -82.03462 139 ft 3 kts 89°
2026-04-26 05:19 27.99138 -82.03418 139 ft 5 kts 88°
2026-04-26 05:19 27.99139 -82.03376 139 ft 5 kts 90°
2026-04-26 05:19 27.99132 -82.03328 139 ft 6 kts 121°
2026-04-26 05:20 27.99089 -82.03303 139 ft 7 kts 176°
2026-04-26 05:20 27.99050 -82.03325 139 ft 5 kts 231°
2026-04-26 05:20 27.99028 -82.03356 139 ft 4 kts 222°
2026-04-26 05:20 27.99007 -82.03369 139 ft 3 kts 197°
2026-04-26 05:21 27.98979 -82.03373 139 ft 5 kts 179°
2026-04-26 05:21 27.98933 -82.03359 139 ft 7 kts 129°
2026-04-26 05:21 27.98926 -82.03309 139 ft 0 kts 89°
2026-04-26 05:22 27.98926 -82.03297 139 ft 9 kts 89°
2026-04-26 05:22 27.98927 -82.02928 135 ft 84 kts 90°
2026-04-26 05:22 27.98929 -82.01984 140 ft 153 kts 90°
2026-04-26 05:23 27.98917 -82.00597 368 ft 191 kts 91°
2026-04-26 05:23 27.98936 -81.99089 1162 ft 198 kts 86°
2026-04-26 05:23 27.99074 -81.97580 1885 ft 196 kts 84°
2026-04-26 05:23 27.99246 -81.96006 2246 ft 210 kts 83°
2026-04-26 05:24 27.99447 -81.94330 2692 ft 221 kts 82°
2026-04-26 05:24 27.99930 -81.92646 3141 ft 232 kts 61°
2026-04-26 05:24 28.00989 -81.91184 3527 ft 249 kts 37°
2026-04-26 05:24 28.02545 -81.90280 3958 ft 263 kts 13°
2026-04-26 05:25 28.04403 -81.90144 4474 ft 272 kts 348°
2026-04-26 05:25 28.06127 -81.90947 5099 ft 274 kts 320°
2026-04-26 05:25 28.07441 -81.92495 5837 ft 274 kts 307°
2026-04-26 05:25 28.08668 -81.94159 6649 ft 275 kts 309°
2026-04-26 05:26 28.09935 -81.95742 7415 ft 276 kts 311°
2026-04-26 05:26 28.11266 -81.97337 8143 ft 278 kts 311°
2026-04-26 05:26 28.12706 -81.98806 8849 ft 281 kts 321°
2026-04-26 05:26 28.14283 -82.00109 9570 ft 282 kts 322°
2026-04-26 05:27 28.15876 -82.01398 10240 ft 285 kts 322°
2026-04-26 05:27 28.17519 -82.02736 10576 ft 300 kts 322°
2026-04-26 05:27 28.19241 -82.04144 10924 ft 315 kts 323°
2026-04-26 05:27 28.21060 -82.05634 11309 ft 330 kts 323°
2026-04-26 05:28 28.22959 -82.07188 11741 ft 344 kts 323°
2026-04-26 05:28 28.24943 -82.08814 12163 ft 358 kts 323°
2026-04-26 05:28 28.26984 -82.10488 12615 ft 370 kts 323°
2026-04-26 05:28 28.29090 -82.12216 13320 ft 375 kts 324°
2026-04-26 05:29 28.31195 -82.13944 14181 ft 377 kts 324°
2026-04-26 05:29 28.33319 -82.15687 14983 ft 380 kts 324°
2026-04-26 05:29 28.35473 -82.17457 15713 ft 386 kts 324°
2026-04-26 05:29 28.37657 -82.19253 16455 ft 390 kts 324°
2026-04-26 05:30 28.39878 -82.21079 17178 ft 394 kts 324°
2026-04-26 05:30 28.42079 -82.22890 17869 ft 398 kts 324°
2026-04-26 05:30 28.44325 -82.24739 18603 ft 401 kts 324°
2026-04-26 05:30 28.46602 -82.26614 19348 ft 404 kts 324°
2026-04-26 05:31 28.48874 -82.28487 20009 ft 408 kts 324°
2026-04-26 05:31 28.51178 -82.30388 20743 ft 411 kts 324°
2026-04-26 05:31 28.53477 -82.32285 21411 ft 414 kts 324°
2026-04-26 05:31 28.55815 -82.34216 22058 ft 417 kts 324°
2026-04-26 05:32 28.58179 -82.36169 22669 ft 420 kts 323°
2026-04-26 05:32 28.60536 -82.38116 23297 ft 423 kts 323°
2026-04-26 05:32 28.62947 -82.40111 23856 ft 428 kts 323°
2026-04-26 05:32 28.65340 -82.42091 24408 ft 432 kts 323°
2026-04-26 05:33 28.67801 -82.44128 25026 ft 435 kts 323°
2026-04-26 05:33 28.70227 -82.46139 25623 ft 438 kts 323°
2026-04-26 05:33 28.72751 -82.48093 26178 ft 443 kts 328°
2026-04-26 05:33 28.75550 -82.49649 26702 ft 450 kts 336°
2026-04-26 05:34 28.78595 -82.50742 27230 ft 457 kts 343°
2026-04-26 05:34 28.81671 -82.51641 27791 ft 460 kts 343°
2026-04-26 05:34 28.84774 -82.52539 28340 ft 464 kts 343°
2026-04-26 05:34 28.87923 -82.53454 28883 ft 468 kts 342°
2026-04-26 05:35 28.91089 -82.54377 29457 ft 471 kts 342°
2026-04-26 05:35 28.94272 -82.55307 30140 ft 471 kts 342°
2026-04-26 05:35 28.97439 -82.56234 30927 ft 468 kts 342°
2026-04-26 05:35 29.00548 -82.57145 31664 ft 466 kts 342°
2026-04-26 05:36 29.03723 -82.58078 31900 ft 468 kts 342°
2026-04-26 05:36 29.06853 -82.58998 31902 ft 465 kts 342°
2026-04-26 05:36 29.13021 -82.60815 31906 ft 463 kts 342°
2026-04-26 05:37 29.19336 -82.62678 31904 ft 462 kts 342°
2026-04-26 05:37 29.25612 -82.64532 31908 ft 465 kts 342°
2026-04-26 05:38 29.31858 -82.66380 31911 ft 462 kts 342°
2026-04-26 05:38 29.38087 -82.68226 31915 ft 462 kts 342°
2026-04-26 05:39 29.44503 -82.69305 31900 ft 469 kts 355°
2026-04-26 05:39 29.51027 -82.69281 31897 ft 470 kts 356°
2026-04-26 05:40 29.57575 -82.69233 31898 ft 471 kts 356°
2026-04-26 05:40 29.64154 -82.69188 31891 ft 469 kts 356°
2026-04-26 05:41 29.70697 -82.69145 31897 ft 469 kts 356°
2026-04-26 05:41 29.77205 -82.69103 31887 ft 468 kts 356°
2026-04-26 05:42 29.83715 -82.69062 31883 ft 470 kts 356°
2026-04-26 05:42 29.90254 -82.69021 31894 ft 470 kts 356°
2026-04-26 05:43 29.96798 -82.68980 31884 ft 468 kts 356°
2026-04-26 05:43 30.03318 -82.68939 31891 ft 469 kts 356°
2026-04-26 05:44 30.09844 -82.68898 31897 ft 470 kts 356°
2026-04-26 05:44 30.16376 -82.68857 31899 ft 468 kts 356°
2026-04-26 05:45 30.22920 -82.68816 31903 ft 470 kts 356°
2026-04-26 05:45 30.29458 -82.68774 31900 ft 469 kts 356°
2026-04-26 05:46 30.36037 -82.68733 31891 ft 468 kts 356°
2026-04-26 05:46 30.42522 -82.68692 31884 ft 470 kts 356°
2026-04-26 05:47 30.49082 -82.68650 31881 ft 468 kts 356°
2026-04-26 05:47 30.55616 -82.67845 31889 ft 474 kts
2026-04-26 05:48 30.62157 -82.66712 31884 ft 473 kts
2026-04-26 05:48 30.68706 -82.65579 31885 ft 474 kts
2026-04-26 05:49 30.78477 -82.63889 31893 ft 475 kts
2026-04-26 05:50 30.84995 -82.62761 31890 ft 473 kts
2026-04-26 05:50 30.91517 -82.61631 31891 ft 474 kts
2026-04-26 05:51 30.98029 -82.60502 31894 ft 473 kts
2026-04-26 05:51 31.04569 -82.59367 31895 ft 473 kts
2026-04-26 05:52 31.11060 -82.58238 31901 ft 475 kts
2026-04-26 05:52 31.17595 -82.57100 31898 ft 474 kts
2026-04-26 05:53 31.24165 -82.55956 31894 ft 475 kts
2026-04-26 05:53 31.30712 -82.54812 31896 ft 474 kts
2026-04-26 05:54 31.37236 -82.53672 31898 ft 475 kts
2026-04-26 05:54 31.43765 -82.52528 31898 ft 474 kts
2026-04-26 05:55 31.50306 -82.51382 31899 ft 475 kts
2026-04-26 05:55 31.56811 -82.51129 31899 ft 466 kts 350°
2026-04-26 05:56 31.63298 -82.51811 31893 ft 465 kts 349°
2026-04-26 05:56 31.69751 -82.52501 31883 ft 465 kts 349°
2026-04-26 05:57 31.76191 -82.53189 31889 ft 465 kts 349°
2026-04-26 05:57 31.82662 -82.53880 31885 ft 466 kts 349°
2026-04-26 05:58 31.89130 -82.54572 31886 ft 464 kts 349°
2026-04-26 05:58 31.95570 -82.55260 31884 ft 464 kts 349°
2026-04-26 05:59 32.02010 -82.55949 31881 ft 465 kts 349°
2026-04-26 05:59 32.08448 -82.56640 31879 ft 464 kts 349°
2026-04-26 06:00 32.14829 -82.57326 31877 ft 466 kts 349°
2026-04-26 06:00 32.21258 -82.58016 31877 ft 464 kts 349°
2026-04-26 06:01 32.27737 -82.58714 31880 ft 465 kts 349°
2026-04-26 06:01 32.34201 -82.59411 31872 ft 466 kts 349°
2026-04-26 06:02 32.40624 -82.60104 31872 ft 465 kts 349°
2026-04-26 06:02 32.47081 -82.60802 31874 ft 465 kts 349°
2026-04-26 06:03 32.53545 -82.61502 31889 ft 466 kts 349°
2026-04-26 06:03 32.60020 -82.62203 31895 ft 466 kts 349°
2026-04-26 06:04 32.66493 -82.62907 31892 ft 466 kts 349°
2026-04-26 06:04 32.72952 -82.63609 31892 ft 467 kts 349°
2026-04-26 06:05 32.79394 -82.64310 31895 ft 465 kts 349°
2026-04-26 06:05 32.85863 -82.65016 31891 ft 466 kts 349°
2026-04-26 06:06 32.92371 -82.65726 31893 ft 466 kts 349°
2026-04-26 06:06 32.98822 -82.66432 31887 ft 465 kts 349°
2026-04-26 06:07 33.05274 -82.67139 31877 ft 465 kts 349°
2026-04-26 06:07 33.11672 -82.67840 31871 ft 463 kts 349°
2026-04-26 06:08 33.18154 -82.68553 31871 ft 467 kts 349°
2026-04-26 06:08 33.24581 -82.69260 31873 ft 465 kts 349°
2026-04-26 06:09 33.31097 -82.69978 31871 ft 466 kts 349°
2026-04-26 06:09 33.37556 -82.70691 31874 ft 466 kts 349°
2026-04-26 06:10 33.44019 -82.71405 31879 ft 468 kts 349°
2026-04-26 06:10 33.50509 -82.72123 31880 ft 466 kts 349°
2026-04-26 06:11 33.56992 -82.72842 31886 ft 468 kts 349°
2026-04-26 06:11 33.63497 -82.73563 31888 ft 467 kts 349°
2026-04-26 06:12 33.69957 -82.74282 31886 ft 467 kts 349°
2026-04-26 06:12 33.76478 -82.75008 31893 ft 469 kts 349°
2026-04-26 06:13 33.82976 -82.75732 31901 ft 468 kts 349°
2026-04-26 06:13 33.89458 -82.76457 31898 ft 469 kts 349°
2026-04-26 06:14 33.95941 -82.77182 31900 ft 468 kts 349°
2026-04-26 06:14 34.02438 -82.77910 31900 ft 467 kts 349°
2026-04-26 06:15 34.08947 -82.78640 31905 ft 469 kts 350°
2026-04-26 06:15 34.15493 -82.79376 31907 ft 470 kts 349°
2026-04-26 06:16 34.22005 -82.80109 31902 ft 470 kts 350°
2026-04-26 06:16 34.28513 -82.80843 31905 ft 470 kts 350°
2026-04-26 06:17 34.35039 -82.81580 31904 ft 471 kts 350°
2026-04-26 06:17 34.41591 -82.82320 31909 ft 471 kts 350°
2026-04-26 06:18 34.48157 -82.83064 31911 ft 472 kts 350°
2026-04-26 06:18 34.54708 -82.83807 31918 ft 474 kts 349°
2026-04-26 06:19 34.61285 -82.84554 31918 ft 473 kts 350°
2026-04-26 06:19 34.67856 -82.85303 31919 ft 475 kts 350°
2026-04-26 06:20 34.74459 -82.86054 31923 ft 473 kts 349°
2026-04-26 06:20 34.81031 -82.86805 31921 ft 474 kts 350°
2026-04-26 06:21 34.87557 -82.87551 31919 ft 474 kts 350°
2026-04-26 06:21 34.94186 -82.88310 31925 ft 476 kts 350°
2026-04-26 06:22 35.00750 -82.89123 31922 ft 474 kts 349°
2026-04-26 06:22 35.07339 -82.89951 31929 ft 476 kts 349°
2026-04-26 06:23 35.13932 -82.90778 31940 ft 474 kts 349°
2026-04-26 06:23 35.20530 -82.91606 31952 ft 477 kts 349°
2026-04-26 06:24 35.27120 -82.92434 31965 ft 475 kts 349°
2026-04-26 06:24 35.33717 -82.93264 31962 ft 475 kts 349°
2026-04-26 06:25 35.40319 -82.94096 31962 ft 476 kts 349°
2026-04-26 06:25 35.46943 -82.94931 31962 ft 475 kts 349°
2026-04-26 06:26 35.53569 -82.95769 31962 ft 477 kts 349°
2026-04-26 06:26 35.60138 -82.96600 31961 ft 478 kts 350°
2026-04-26 06:27 35.66793 -82.97444 31962 ft 478 kts 349°
2026-04-26 06:27 35.73408 -82.98283 31960 ft 478 kts 349°
2026-04-26 06:28 35.80004 -82.99123 31965 ft 478 kts 349°
2026-04-26 06:28 35.86624 -82.99966 31966 ft 480 kts 349°
2026-04-26 06:29 35.93316 -83.00820 31952 ft 477 kts 349°
2026-04-26 06:29 35.99943 -83.01668 31953 ft 480 kts 349°
2026-04-26 06:30 36.06558 -83.02514 31952 ft 476 kts 349°
2026-04-26 06:30 36.13175 -83.03364 31953 ft 479 kts 350°
2026-04-26 06:31 36.19810 -83.04216 31952 ft 477 kts 349°
2026-04-26 06:31 36.26463 -83.05072 31952 ft 478 kts 349°
2026-04-26 06:32 36.33078 -83.05925 31952 ft 478 kts 350°
2026-04-26 06:32 36.39672 -83.06776 31952 ft 476 kts 350°
2026-04-26 06:33 36.46276 -83.07631 31948 ft 477 kts 350°
2026-04-26 06:33 36.52861 -83.08484 31947 ft 476 kts 350°
2026-04-26 06:34 36.59492 -83.09345 31948 ft 477 kts 350°
2026-04-26 06:34 36.66071 -83.10201 31951 ft 476 kts 350°
2026-04-26 06:35 36.72661 -83.11060 31956 ft 478 kts 350°
2026-04-26 06:35 36.79232 -83.11917 31957 ft 477 kts 350°
2026-04-26 06:36 36.85821 -83.12778 31958 ft 476 kts 350°
2026-04-26 06:36 36.92417 -83.13641 31957 ft 476 kts 350°
2026-04-26 06:37 36.98986 -83.14503 31949 ft 476 kts 350°
2026-04-26 06:37 37.05574 -83.15369 31946 ft 475 kts 350°
2026-04-26 06:38 37.12181 -83.16239 31950 ft 475 kts 350°
2026-04-26 06:38 37.18744 -83.17104 31954 ft 475 kts 351°
2026-04-26 06:39 37.25296 -83.17969 31955 ft 474 kts 351°
2026-04-26 06:39 37.31857 -83.18838 31963 ft 473 kts 351°
2026-04-26 06:40 37.38394 -83.19704 31961 ft 472 kts 351°
2026-04-26 06:40 37.44959 -83.20576 31964 ft 472 kts 351°
2026-04-26 06:41 37.51498 -83.21446 31975 ft 473 kts 351°
2026-04-26 06:41 37.58010 -83.22314 31980 ft 472 kts 351°
2026-04-26 06:42 37.64534 -83.23184 31981 ft 471 kts 351°
2026-04-26 06:42 37.71082 -83.24060 31979 ft 471 kts 351°
2026-04-26 06:43 37.77612 -83.24934 31973 ft 469 kts 351°
2026-04-26 06:43 37.84127 -83.25866 31970 ft 471 kts 351°
2026-04-26 06:44 37.90640 -83.26814 31975 ft 471 kts 351°
2026-04-26 06:44 37.97147 -83.27762 31984 ft 471 kts 351°
2026-04-26 06:45 38.03682 -83.28713 31989 ft 470 kts 351°
2026-04-26 06:45 38.10173 -83.29660 31990 ft 470 kts 351°
2026-04-26 06:46 38.16679 -83.30610 31994 ft 468 kts 352°
2026-04-26 06:46 38.23147 -83.31556 31991 ft 469 kts 352°
2026-04-26 06:47 38.29601 -83.32501 31992 ft 468 kts 351°
2026-04-26 06:47 38.36132 -83.33459 31996 ft 469 kts 352°
2026-04-26 06:48 38.42599 -83.34410 31995 ft 468 kts 352°
2026-04-26 06:48 38.49052 -83.35361 31996 ft 468 kts 351°
2026-04-26 06:49 38.55533 -83.36317 31996 ft 468 kts 352°
2026-04-26 06:49 38.62006 -83.37273 31997 ft 467 kts 352°
2026-04-26 06:50 38.68453 -83.38228 31997 ft 466 kts 352°
2026-04-26 06:50 38.74880 -83.39181 32002 ft 467 kts 352°
2026-04-26 06:51 38.81336 -83.40140 32005 ft 466 kts 352°
2026-04-26 06:51 38.90968 -83.41576 32012 ft 465 kts 352°
2026-04-26 06:52 38.97420 -83.42539 32009 ft 464 kts 352°
2026-04-26 06:52 39.03834 -83.43498 32013 ft 464 kts 352°
2026-04-26 06:53 39.10268 -83.44462 32016 ft 465 kts 352°
2026-04-26 06:53 39.16676 -83.45424 32017 ft 464 kts 352°
2026-04-26 06:54 39.23116 -83.46393 32020 ft 465 kts 352°
2026-04-26 06:54 39.29553 -83.47362 32016 ft 464 kts 352°
2026-04-26 06:55 39.35989 -83.48334 32019 ft 464 kts 352°
2026-04-26 06:55 39.42386 -83.49301 32021 ft 464 kts 352°
2026-04-26 06:56 39.48793 -83.50272 32020 ft 464 kts 352°
2026-04-26 06:56 39.55242 -83.51251 32019 ft 464 kts 352°
2026-04-26 06:57 39.61654 -83.52226 32020 ft 464 kts 352°
2026-04-26 06:57 39.68036 -83.53198 32022 ft 464 kts 352°
2026-04-26 06:58 39.74467 -83.54179 32022 ft 464 kts 352°
2026-04-26 06:58 39.80848 -83.55155 32030 ft 464 kts 352°
2026-04-26 06:59 39.87256 -83.56137 32041 ft 463 kts 352°
2026-04-26 06:59 39.93625 -83.57115 32041 ft 463 kts 352°
2026-04-26 07:00 40.00024 -83.58099 32040 ft 464 kts 352°
2026-04-26 07:00 40.06457 -83.59016 32036 ft 463 kts 353°
2026-04-26 07:01 40.12857 -83.59875 32038 ft 463 kts 353°
2026-04-26 07:01 40.19281 -83.60744 32038 ft 463 kts 353°
2026-04-26 07:02 40.25652 -83.61609 32046 ft 461 kts 353°
2026-04-26 07:02 40.32029 -83.62479 32044 ft 461 kts 353°
2026-04-26 07:03 40.38452 -83.63357 32048 ft 464 kts 353°
2026-04-26 07:03 40.44841 -83.64232 32054 ft 461 kts 353°
2026-04-26 07:04 40.51195 -83.65105 32053 ft 461 kts 352°
2026-04-26 07:04 40.57572 -83.65982 32054 ft 460 kts 352°
2026-04-26 07:05 40.63953 -83.66861 32053 ft 460 kts 352°
2026-04-26 07:05 40.70349 -83.67745 32063 ft 460 kts 352°
2026-04-26 07:06 40.76735 -83.68629 32063 ft 460 kts 352°
2026-04-26 07:06 40.83102 -83.69511 32064 ft 461 kts 352°
2026-04-26 07:07 40.89487 -83.70399 32072 ft 459 kts 352°
2026-04-26 07:07 40.95827 -83.71281 32079 ft 458 kts 352°
2026-04-26 07:08 41.02125 -83.72160 32089 ft 458 kts 352°
2026-04-26 07:08 41.08465 -83.73045 32088 ft 458 kts 352°
2026-04-26 07:09 41.14843 -83.73939 32094 ft 459 kts 352°
2026-04-26 07:09 41.21002 -83.75968 32073 ft 455 kts 336°
2026-04-26 07:10 41.29303 -83.81788 30548 ft 450 kts 330°
2026-04-26 07:11 41.34671 -83.85710 29804 ft 436 kts 331°
2026-04-26 07:11 41.37313 -83.87643 29342 ft 434 kts 331°
2026-04-26 07:11 41.39979 -83.89594 28875 ft 448 kts 331°
2026-04-26 07:11 41.42721 -83.91603 28375 ft 450 kts 331°
2026-04-26 07:12 41.45437 -83.93596 27884 ft 446 kts 331°
2026-04-26 07:12 41.48157 -83.95592 27393 ft 441 kts 331°
2026-04-26 07:12 41.50827 -83.97554 26892 ft 437 kts 331°
2026-04-26 07:12 41.53445 -83.99479 26403 ft 432 kts 331°
2026-04-26 07:13 41.56057 -84.01402 25902 ft 428 kts 331°
2026-04-26 07:13 41.58658 -84.03319 25390 ft 424 kts 331°
2026-04-26 07:13 41.61233 -84.05217 24890 ft 420 kts 331°
2026-04-26 07:13 41.63737 -84.07066 24399 ft 416 kts 331°
2026-04-26 07:14 41.66261 -84.08930 23895 ft 413 kts 331°
2026-04-26 07:14 41.68767 -84.10783 23391 ft 409 kts 331°
2026-04-26 07:14 41.71254 -84.12624 22886 ft 406 kts 330°
2026-04-26 07:14 41.73706 -84.14440 22389 ft 402 kts 330°
2026-04-26 07:15 41.76123 -84.16232 21906 ft 399 kts 330°
2026-04-26 07:15 41.78527 -84.18016 21422 ft 396 kts 330°
2026-04-26 07:15 41.80936 -84.19805 20928 ft 393 kts 330°
2026-04-26 07:15 41.83289 -84.21554 20459 ft 390 kts 330°
2026-04-26 07:16 41.85664 -84.23321 19972 ft 387 kts 330°
2026-04-26 07:16 41.87997 -84.25058 19470 ft 385 kts 330°
2026-04-26 07:16 41.90345 -84.26808 18993 ft 382 kts 330°
2026-04-26 07:16 41.92651 -84.28528 18510 ft 380 kts 330°
2026-04-26 07:17 41.94929 -84.30228 18034 ft 378 kts 330°
2026-04-26 07:17 41.97222 -84.31941 17543 ft 376 kts 329°
2026-04-26 07:17 41.99506 -84.33649 17061 ft 373 kts 329°
2026-04-26 07:17 42.01745 -84.35325 16581 ft 371 kts 330°
2026-04-26 07:18 42.03983 -84.37001 16078 ft 370 kts 330°
2026-04-26 07:18 42.06249 -84.38700 15517 ft 370 kts 330°
2026-04-26 07:18 42.08478 -84.40372 15002 ft 368 kts 330°
2026-04-26 07:18 42.10689 -84.42032 14528 ft 365 kts 330°
2026-04-26 07:19 42.12915 -84.43704 14078 ft 362 kts 330°
2026-04-26 07:19 42.15088 -84.45338 13594 ft 359 kts 330°
2026-04-26 07:19 42.17268 -84.46980 13134 ft 357 kts 330°
2026-04-26 07:19 42.19408 -84.48592 12686 ft 354 kts 330°
2026-04-26 07:20 42.21532 -84.50192 12196 ft 352 kts 331°
2026-04-26 07:20 42.23684 -84.51816 11750 ft 349 kts 331°
2026-04-26 07:20 42.25783 -84.53400 11299 ft 346 kts 331°
2026-04-26 07:20 42.27876 -84.54982 10871 ft 343 kts 331°
2026-04-26 07:21 42.29931 -84.56536 10763 ft 331 kts 331°
2026-04-26 07:21 42.31883 -84.58013 10677 ft 319 kts 331°
2026-04-26 07:21 42.33800 -84.59464 10556 ft 308 kts 331°
2026-04-26 07:21 42.35622 -84.60844 10413 ft 298 kts 332°
2026-04-26 07:22 42.37404 -84.62196 10306 ft 287 kts 332°
2026-04-26 07:22 42.39100 -84.63483 10156 ft 278 kts 332°
2026-04-26 07:22 42.40767 -84.64749 10045 ft 268 kts 332°
2026-04-26 07:22 42.42392 -84.65983 9696 ft 267 kts 332°
2026-04-26 07:23 42.43986 -84.67194 9317 ft 267 kts 332°
2026-04-26 07:23 42.45604 -84.68425 8984 ft 265 kts 332°
2026-04-26 07:23 42.47205 -84.69643 8666 ft 264 kts 332°
2026-04-26 07:23 42.48813 -84.70868 8350 ft 262 kts 333°
2026-04-26 07:24 42.50396 -84.72074 8032 ft 261 kts 333°
2026-04-26 07:24 42.51953 -84.73261 7720 ft 259 kts 333°
2026-04-26 07:24 42.53532 -84.74466 7395 ft 258 kts 333°
2026-04-26 07:24 42.55063 -84.75634 7114 ft 252 kts 334°
2026-04-26 07:25 42.56599 -84.76807 6783 ft 247 kts 334°
2026-04-26 07:25 42.58079 -84.77939 6485 ft 242 kts 334°
2026-04-26 07:25 42.59517 -84.79038 6192 ft 237 kts 334°
2026-04-26 07:25 42.60950 -84.80135 5901 ft 232 kts 334°
2026-04-26 07:26 42.62334 -84.81194 5621 ft 227 kts 335°
2026-04-26 07:26 42.63701 -84.82240 5359 ft 222 kts 335°
2026-04-26 07:26 42.65026 -84.83256 5105 ft 213 kts 335°
2026-04-26 07:26 42.66327 -84.84043 4839 ft 201 kts 350°
2026-04-26 07:27 42.67688 -84.84199 4604 ft 190 kts
2026-04-26 07:27 42.68979 -84.84209 4379 ft 183 kts
2026-04-26 07:27 42.70235 -84.84199 4165 ft 178 kts
2026-04-26 07:27 42.71449 -84.84187 3954 ft 172 kts
2026-04-26 07:28 42.72639 -84.84174 3759 ft 170 kts
2026-04-26 07:28 42.73832 -84.84161 3557 ft 172 kts
2026-04-26 07:28 42.75025 -84.84106 3345 ft 169 kts 14°
2026-04-26 07:28 42.76129 -84.83624 3139 ft 164 kts 32°
2026-04-26 07:29 42.77029 -84.82699 2986 ft 161 kts 51°
2026-04-26 07:29 42.77651 -84.81446 2899 ft 161 kts 68°
2026-04-26 07:29 42.77948 -84.79983 2810 ft 159 kts 84°
2026-04-26 07:29 42.77956 -84.78484 2738 ft 157 kts 90°
2026-04-26 07:30 42.77939 -84.77027 2673 ft 155 kts 90°
2026-04-26 07:30 42.77929 -84.75562 2608 ft 154 kts 90°
2026-04-26 07:30 42.77920 -84.74110 2533 ft 153 kts 90°
2026-04-26 07:30 42.77911 -84.72675 2467 ft 153 kts 90°
2026-04-26 07:31 42.77901 -84.71236 2397 ft 153 kts 90°
2026-04-26 07:31 42.77891 -84.69838 2303 ft 154 kts 90°
2026-04-26 07:31 42.77881 -84.68344 2060 ft 159 kts 90°
2026-04-26 07:31 42.77871 -84.66844 1828 ft 158 kts 90°
2026-04-26 07:32 42.77863 -84.65371 1584 ft 158 kts 90°
2026-04-26 07:32 42.77858 -84.63869 1313 ft 155 kts 90°
2026-04-26 07:32 42.77830 -84.62436 1134 ft 150 kts 91°
2026-04-26 07:32 42.77826 -84.61021 990 ft 149 kts 89°
2026-04-26 07:33 42.77819 -84.59616 889 ft 147 kts 89°
2026-04-26 07:33 42.77815 -84.58308 855 ft 117 kts 89°
2026-04-26 07:33 42.77805 -84.57457 852 ft 64 kts 90°
2026-04-26 07:33 42.77788 -84.57155 852 ft 12 kts 137°
2026-04-26 07:34 42.77716 -84.57147 852 ft 9 kts 198°
2026-04-26 07:34 42.77683 -84.57205 852 ft 7 kts 259°
2026-04-26 07:34 42.77679 -84.57273 852 ft 7 kts 270°
2026-04-26 07:34 42.77680 -84.57349 852 ft 9 kts 270°
2026-04-26 07:35 42.77681 -84.57452 852 ft 12 kts 270°
2026-04-26 07:35 42.77682 -84.57580 852 ft 13 kts 270°
2026-04-26 07:35 42.77666 -84.57686 852 ft 10 kts 216°
2026-04-26 07:35 42.77591 -84.57701 852 ft 11 kts 181°
2026-04-26 07:36 42.77537 -84.57761 851 ft 10 kts 255°
2026-04-26 07:36 42.77533 -84.57861 852 ft 10 kts 269°
2026-04-26 07:36 42.77533 -84.57954 854 ft 10 kts 270°
2026-04-26 07:36 42.77491 -84.58015 855 ft 10 kts 184°
2026-04-26 07:37 42.77456 -84.58016 855 ft 0 kts 181°